Retour au catalogue

SL-16 DEB

LostLEO
NORAD 39844·DEBRIS·🇷🇺 Russia

Lancé Dec 25, 1992 depuis Baikonur Cosmodrome

Loading…

Prochains Passages (prochaines 24 heures)

TLE

PériméSource: Space-Track

Époque: Nov 11, 2022, 21:17 UTC

1 39844U 92093KW  22315.88691631  .00002004  00000-0  73415-3 0  9995
2 39844  70.6528 174.0231 0045076 213.1175 146.7132 14.33567143986798

Suivez SL-16 DEB en temps réel avec AllMySat

Download on the App Store